Погода в Акколе

Казахстан     51°59′45″N   70°57′10″E
темп.,
°C
ветер,
м/с
пор.,
м/с
влажн.,
%
обл.,
%
осадки,
мм/ч
давл.,
гПа
погр.,
м
2 марта, вт
вт200:00−13з359792 0.3 101882
03:00−16зюз349996 0.0 101944
06:00−18зюз3410099 0.1 101944
09:00−18зюз349988 0.0 101974
12:00−14зюз359590 0.1 1018237
15:00−11юз469499 0.1 1017340
18:00−12зюз4794100 0.1 1017409
21:00−14зюз5109589 0.1 1018290
3 марта, ср
ср300:00−16зюз6119691 0.2 1019283
03:00−18юз61297100 0.1 1019286
06:00−18юз71496100 0.1 1020343
09:00−20юз71497100 0.0 1020285
12:00−16юз8139399 0.0 1019382
15:00−12юз91492100 0.0 1018510
18:00−8юз91591100 0.1 1017701
21:00−5юз91792100 0.2 1016806
4 марта, чт
чт400:00−4юз101793100 0.6 1015808
03:00−4ююз101693100 0.4 1014735
06:00−4ююз111892100 0.9 1014831
09:00−5ююз111990100 0.1 1012643
12:00−4ююз111890100 0.2 1012684
15:00−3ююз111892100 0.1 1010849
18:00−2ююз111889100 0.8 1009956
21:00−3ююз101695100 0.4 1008793
5 марта, пт
пт500:00−3юз9149199 0.9 1009870
03:00−6зюз81391100 0.3 1011566
06:00−12зюз6139595 0.3 1016271
09:00−13зюз7149593 0.0 1019311
12:00−9юз10188562 0.0 1020629
15:00−6юз13208963 0.1 1019935
18:00−5юз12208482 0.1 1019851
21:00−7юз12218499 0.0 1020805
6 марта, сб
сб600:00−8юз112086100 0.0 1020750
03:00−7юз112086100 0.0 1019775
06:00−7юз101988100 0.1 1019714
09:00−7юз101792100 0.2 1018633
12:00−6юз91493100 0.3 1018562
15:00−5зюз81293100 0.1 1019564
18:00−4зюз6993100 0.3 1020504
21:00−5юз5995100 0.1 1020408